Location: Doverdale
(52.2833°N, 2.2000°W)
Time: 03:16:02
(UTC+00:00)

H-2A R/B - Pass Details

Date: 29 October 2020
Orbit: 733 x 837 km, 98.2° (Epoch: 24 November)

Event Time Altitude Azimuth Distance (km) Brightness Sun altitude
Rises 17:58:27 0° 136° (SE) 3,368 5.0 -11.8°
Reaches altitude 10° 18:00:56 10° 128° (SE) 2,445 4.2 -12.1°
Maximum altitude 18:05:53 37° 63° (ENE) 1,282 2.7 -12.9°
Drops below altitude 10° 18:10:51 10° 358° (N) 2,460 4.6 -13.7°
Sets 18:13:22 0° 350° (N) 3,392 5.4 -14.0°
